Tracking 33407 objects as of 5-Mar-2026
HD Live streaming from Space Station
objects crossing your sky now

COSMOS 568

Track COSMOS 568 now!
10-day predictions
COSMOS 568 is classified as:


NORAD ID: 6679
Int'l Code: 1973-037E
Perigee: 1,381.2 km
Apogee: 1,487.6 km
Inclination: 74.0 °
Period: 114.4 minutes
Semi major axis: 7805 km
RCS: 0.71 m2 (medium)
Launch date: June 8, 1973
Source: Commonwealth of Independent States (former USSR) (CIS)
Launch site: PLESETSK MISSILE AND SPACE COMPLEX (PKMTR)
Your satellite tracking list
Your tracking list is empty




NASA's NSSDC Master Catalog

Two Line Element Set (TLE):
1 06679U 73037E   26064.32695874 -.00000022  00000-0 -31895-4 0  9996
2 06679  74.0207  23.4611 0068149 219.5813 213.4273 12.58951877423693
Source of the keplerian elements: AFSPC